Live-Position
3D-Globus wird geladen...
Über Starlink 1680
Group: 3 satellites
Beschreibung wird geladen...
Nächste Überflüge
Passes for default location (London). Set your location on the main map for personalized predictions.
Höhenverlauf
Loading altitude history...
No altitude history available
Zweizeiliger Elementsatz
1 46558U 20070AC 26127.03430032 .13002747 12543-4 34893-3 0 9993
2 46558 53.0160 171.5175 0004238 291.9176 68.1422 16.45526119309717
Epoch: 7. Mai 2026 •
Age: 14 hours
Aktueller Status
Höhe 117.8 km
Geschwindigkeit 7.84 km/s
Subsatellitenpunkt -26.65°S,
52.72°E
Startdatum 6. Okt. 2020
Alter 5.5 years
Typ internet
Startgruppe
Falcon 9 •
Launch 12 •
17 satellites
Starlink 1663
46535
Starlink 1672 46537
Starlink 1678 46538
Starlink 1664 46553
Starlink 1676 46556
Starlink 1679 46557
Starlink 1714 46562
Starlink 1730 46563
Starlink 1733 46564
Starlink 1735 46565
Starlink 1741 46567
Starlink 1531 46572
Starlink 1677 46576
Starlink 1728 46582
Starlink 1736 46585
Starlink 1746 46588
Technische Details
Klassifizierung Payload
Masse 260.00 kg
Trockenmasse 248.00 kg
Gesamtmasse 260.00 kg
Länge 0.20 m
Durchmesser 2.80 m
Spannweite 9.00 m
Form Box + pan
Hersteller SPXS
Bus-Typ Starlink
Phasenstatus In Orbit
Besitzer/Staat SPXS/US
Most Searched
Loading...